Total_Precipitation_Accumulation
0.00 0.01 0.02 0.02 0.02 0.03 0.05 0.07 0.11 0.15 0.14 0.17 0.32 0.50 0.52 0.66 0.91 1.13 1.43 1.72 2.01 2.29 2.72 3.15 3.23 3.45 3.74 4.24 4.53 4.61 4.73 4.65 4.42 4.03 3.61 3.41 3.28 3.19 3.03 2.79 2.55 2.45 2.39 2.45
0.01 0.03 0.01 0.01 0.02 0.03 0.06 0.09 0.13 0.15 0.13 0.15 0.30 0.48 0.58 0.90 1.15 1.17 1.25 1.40 1.62 2.07 2.49 2.80 2.88 2.90 3.27 3.85 4.25 4.37 4.13 4.00 3.91 3.66 3.49 3.45 3.60 3.31 2.99 2.78 2.52 2.32 2.30 2.35
0.03 0.03 0.02 0.02 0.02 0.03 0.05 0.06 0.11 0.16 0.15 0.19 0.30 0.59 0.77 1.01 1.12 1.16 1.21 1.31 1.45 1.80 2.16 2.45 2.47 2.56 2.78 2.88 3.12 3.28 3.41 3.28 3.15 3.07 3.07 3.14 3.31 3.04 2.73 2.55 2.40 2.18 2.04 2.00
0.03 0.03 0.03 0.04 0.04 0.04 0.06 0.07 0.06 0.08 0.15 0.26 0.38 0.90 1.12 1.04 1.09 1.22 1.22 1.22 1.44 1.77 1.75 1.85 1.99 2.16 2.38 2.44 2.59 2.66 2.70 2.79 2.74 2.73 2.66 2.55 2.46 2.33 2.19 2.18 2.13 2.09 1.99 1.88
0.05 0.04 0.03 0.05 0.05 0.04 0.05 0.05 0.06 0.09 0.18 0.28 0.39 0.70 1.08 1.38 1.43 1.21 1.13 1.07 1.26 1.39 1.29 1.33 1.50 1.61 1.75 1.83 2.03 2.18 2.28 2.36 2.42 2.41 2.31 2.29 2.13 2.09 2.08 2.02 1.97 1.89 1.81 1.78
0.05 0.05 0.04 0.04 0.04 0.04 0.04 0.06 0.12 0.23 0.41 0.64 0.53 0.65 1.04 1.37 1.59 1.27 1.10 1.03 1.13 1.09 1.06 1.20 1.29 1.33 1.44 1.60 1.75 1.89 2.00 2.03 2.09 2.13 2.10 2.05 1.99 1.98 1.92 1.84 1.78 1.73 1.71 1.60
0.12 0.12 0.10 0.06 0.05 0.06 0.06 0.13 0.45 0.81 1.09 1.11 0.71 0.74 1.09 1.09 1.07 1.05 1.00 1.05 1.06 0.97 0.90 0.90 0.96 1.07 1.21 1.36 1.43 1.53 1.64 1.68 1.64 1.67 1.70 1.68 1.73 1.75 1.62 1.54 1.52 1.47 1.34 1.24
0.17 0.24 0.15 0.09 0.09 0.09 0.10 0.15 0.50 0.76 0.81 0.91 0.79 1.06 1.38 1.08 0.97 0.90 0.94 1.01 0.99 0.84 0.75 0.73 0.75 0.81 0.90 1.00 1.12 1.22 1.33 1.37 1.41 1.44 1.43 1.39 1.39 1.36 1.25 1.32 1.29 1.21 1.04 0.96
0.10 0.11 0.08 0.08 0.09 0.11 0.15 0.17 0.23 0.43 0.48 0.68 0.87 1.15 1.29 0.97 0.91 0.97 1.07 1.08 1.01 0.79 0.62 0.58 0.61 0.66 0.67 0.68 0.77 0.89 1.07 1.15 1.20 1.24 1.22 1.15 1.15 1.16 1.12 1.17 1.24 1.16 1.10 0.99
0.06 0.05 0.06 0.07 0.09 0.12 0.15 0.15 0.19 0.36 0.51 0.71 0.81 1.16 1.39 1.24 1.18 1.13 1.19 1.03 0.75 0.58 0.48 0.44 0.45 0.47 0.49 0.51 0.61 0.72 0.85 0.91 0.97 1.05 1.04 0.90 0.99 1.09 1.08 1.09 1.09 1.09 1.06 1.02
0.05 0.04 0.06 0.09 0.12 0.14 0.19 0.21 0.28 0.39 0.42 0.62 0.92 1.11 1.02 1.00 1.02 1.09 1.07 0.86 0.60 0.47 0.38 0.37 0.39 0.43 0.44 0.46 0.56 0.67 0.81 0.90 0.93 0.98 1.03 0.95 0.92 0.99 1.01 0.99 0.96 0.99 0.97 0.96
0.07 0.06 0.10 0.16 0.18 0.17 0.17 0.19 0.28 0.42 0.40 0.44 0.64 0.80 0.55 0.57 0.63 0.65 0.66 0.57 0.47 0.45 0.38 0.38 0.41 0.44 0.45 0.50 0.57 0.65 0.76 0.86 0.91 1.01 1.12 1.14 1.06 1.02 1.01 0.95 0.88 0.86 0.83 0.83
0.11 0.11 0.17 0.37 0.48 0.30 0.19 0.17 0.19 0.24 0.27 0.28 0.48 0.63 0.42 0.47 0.55 0.62 0.69 0.72 0.67 0.58 0.42 0.38 0.42 0.44 0.47 0.54 0.64 0.70 0.78 0.83 0.88 1.01 1.16 1.21 1.10 1.02 1.02 0.98 0.87 0.79 0.74 0.73
0.11 0.14 0.18 0.40 0.51 0.40 0.30 0.23 0.19 0.22 0.31 0.28 0.30 0.44 0.44 0.49 0.55 0.61 0.69 0.72 0.62 0.52 0.42 0.39 0.43 0.47 0.52 0.56 0.56 0.58 0.60 0.64 0.74 0.80 0.91 1.06 1.06 0.95 0.86 0.81 0.78 0.78 0.76 0.75
0.09 0.12 0.12 0.15 0.22 0.29 0.31 0.26 0.21 0.17 0.21 0.33 0.31 0.34 0.42 0.49 0.47 0.55 0.58 0.50 0.47 0.41 0.42 0.43 0.47 0.50 0.53 0.53 0.49 0.47 0.44 0.46 0.52 0.63 0.71 0.81 0.78 0.76 0.75 0.70 0.63 0.62 0.68 0.68
0.16 0.17 0.16 0.15 0.17 0.21 0.24 0.25 0.18 0.13 0.12 0.15 0.25 0.42 0.44 0.43 0.45 0.46 0.44 0.42 0.41 0.43 0.49 0.52 0.55 0.58 0.51 0.49 0.43 0.40 0.41 0.44 0.51 0.60 0.64 0.72 0.72 0.66 0.61 0.58 0.54 0.52 0.59 0.68
0.34 0.29 0.27 0.23 0.20 0.26 0.30 0.25 0.18 0.13 0.11 0.12 0.29 0.53 0.48 0.45 0.46 0.45 0.47 0.45 0.38 0.40 0.42 0.44 0.44 0.47 0.40 0.39 0.40 0.40 0.44 0.46 0.49 0.56 0.62 0.70 0.75 0.73 0.62 0.53 0.57 0.58 0.65 0.72
0.42 0.46 0.38 0.33 0.38 0.53 0.36 0.22 0.19 0.20 0.18 0.19 0.24 0.33 0.38 0.43 0.43 0.36 0.33 0.32 0.32 0.37 0.41 0.43 0.44 0.41 0.41 0.40 0.41 0.40 0.38 0.40 0.46 0.52 0.58 0.62 0.69 0.71 0.69 0.65 0.68 0.73 0.81 0.86
0.32 0.47 0.47 0.44 0.52 0.46 0.39 0.32 0.30 0.34 0.34 0.31 0.40 0.37 0.39 0.40 0.36 0.35 0.25 0.25 0.25 0.30 0.36 0.39 0.43 0.47 0.53 0.50 0.53 0.54 0.51 0.53 0.59 0.61 0.66 0.65 0.69 0.76 0.80 0.79 0.79 0.86 0.92 0.94
0.39 0.50 0.60 0.56 0.69 0.69 0.59 0.47 0.41 0.44 0.68 0.52 0.52 0.53 0.55 0.53 0.56 0.49 0.31 0.25 0.27 0.28 0.32 0.35 0.32 0.34 0.45 0.51 0.61 0.69 0.74 0.75 0.81 0.85 0.90 0.91 0.96 1.02 0.98 1.06 1.14 1.13 1.13 1.08
0.82 0.80 0.72 0.72 0.83 0.83 0.65 0.54 0.48 0.82 0.95 0.57 0.53 0.58 0.62 0.63 0.63 0.47 0.34 0.29 0.31 0.28 0.29 0.32 0.37 0.35 0.42 0.52 0.65 0.81 0.92 0.92 0.98 1.01 1.09 1.18 1.27 1.39 1.47 1.56 1.51 1.45 1.42 1.39
0.92 1.01 1.01 1.02 1.13 1.04 0.65 0.61 0.82 0.98 0.74 0.75 0.66 0.61 0.60 0.54 0.54 0.50 0.43 0.40 0.31 0.32 0.34 0.37 0.47 0.44 0.47 0.56 0.67 0.79 0.92 1.05 1.18 1.24 1.34 1.43 1.54 1.57 1.64 1.95 2.00 2.04 1.97 1.74
0.98 1.04 1.06 1.07 1.12 0.86 0.69 0.82 0.86 0.81 0.82 0.85 0.77 0.63 0.59 0.51 0.48 0.48 0.44 0.36 0.28 0.28 0.34 0.38 0.51 0.56 0.57 0.66 0.86 1.04 1.04 1.15 1.32 1.43 1.54 1.62 1.67 1.76 1.87 2.00 2.06 2.12 2.11 1.90
0.99 0.83 0.95 1.06 1.11 0.91 0.76 0.74 0.83 0.80 0.74 0.77 0.74 0.74 0.72 0.60 0.50 0.55 0.51 0.39 0.33 0.31 0.35 0.40 0.51 0.64 0.81 0.91 1.06 1.24 1.23 1.30 1.44 1.50 1.53 1.60 1.69 1.78 1.89 2.02 2.00 1.96 1.91 1.87
0.88 0.93 1.10 1.22 1.16 1.03 0.89 0.85 0.97 0.96 0.85 0.87 0.85 0.83 0.79 0.65 0.53 0.49 0.47 0.46 0.45 0.46 0.50 0.51 0.59 0.75 0.97 1.14 1.24 1.31 1.33 1.46 1.58 1.60 1.65 1.72 1.75 1.78 1.88 1.91 1.96 1.87 1.78 1.71
0.82 0.96 1.14 1.26 1.17 1.25 1.16 0.96 1.02 1.09 0.95 0.94 0.93 0.86 0.70 0.61 0.58 0.54 0.52 0.51 0.52 0.55 0.56 0.61 0.69 0.81 0.97 1.14 1.31 1.43 1.53 1.62 1.71 1.74 1.68 1.76 1.84 1.88 1.92 1.89 1.75 1.61 1.50 1.39